Location: Bieg
(49.3499°N, 10.3835°E)
Time: 10:11:09
(UTC+00:00)

Cosmos 1346 Rocket - Pass Details

Date: 16 August 2024
Orbit: 503 x 516 km, 81.2° (Epoch: 10 September)

Event Time Altitude Azimuth Distance (km) Brightness Sun altitude
Exits shadow 00:24:34 18° 88° (E) 1,315 4.9 -25.6°
Drops below altitude 10° 00:27:05 10° 46° (NE) 1,724 6.1 -25.4°
Sets 00:29:44 0° 27° (NNE) 2,617 7.6 -25.3°
